Starlink 32456

operational
NORAD ID: 62041 Int'l Des: 2024-216 Owner: SPXS Country: US Constellation: starlink
LEOCIRCULAR

Über Starlink 32456

Beschreibung wird geladen...

Live-Position

3D-Globus wird geladen...

Nächste Überflüge

Höhenverlauf

Altitude vs Time

uPlot chart will show altitude changes over time

Zweizeiliger Elementsatz

1 62041U 24216K 25353.33574397 .00022519 00000-0 82477-3 0 9997
2 62041 43.0018 350.3709 0001568 269.4900 90.5772 15.27603080 61580
Epoch: 19. Dez. 2025 • Age: 18 hours

Aktueller Status

Höhe 486.5 km
Geschwindigkeit 7.63 km/s
Subsatellitenpunkt 40.31°N, 14.42°W
Startdatum 21. Nov. 2024
Alter 1 years
Typ internet

Technische Details

Klassifizierung Payload
Masse 730.00 kg
Trockenmasse 700.00 kg
Gesamtmasse 730.00 kg
Länge 0.30 m
Durchmesser 4.10 m
Spannweite 29.00 m
Form Box + pan
Hersteller SPXS
Bus-Typ Starlink V2M
Phasenstatus In Orbit
Besitzer/Staat SPXS/US

Große Konstellationen

Loading constellations...